This demonstration page uses our WeatherBlox Daily Observations layout. Learn more.

Hourly Observations for June 22, 2019

Temp ( °F °C ) Dew Point ( °F °C ) Humidity (%) Winds ( mph kmh ) Pressure ( in mb ) Visibility ( mi km ) Precip ( " mm )
12:15 am 00:15 Mostly Cloudy 65 18.2 49 9.2 56 56 N 8 13 29.85 1011 10 16.09344 0 0
12:35 am 00:35 Cloudy 64 18 50 10.1 60 60 NNE 13 20 29.83 1010 10 16.09344 0 0
12:55 am 00:55 Cloudy 65 18.1 51 10.8 63 63 Calm 29.88 1012 10 16.09344 0 0
1:15 am 01:15 Cloudy 64 18 53 11.9 68 68 NNE 14 22 29.83 1010 10 16.09344 0 0
1:35 am 01:35 Partly Cloudy 64 17.5 55 12.6 73 73 NNE 14 22 29.8 1009 10 16.09344 0 0
1:55 am 01:55 Mostly Cloudy 63 17.3 56 13.5 79 79 NNE 10 17 29.83 1010 10 16.09344 0 0
2:15 am 02:15 Partly Cloudy 62 16.7 56 13.5 82 82 N 13 20 29.8 1009 10 16.09344 0 0
2:35 am 02:35 Clear 61 16.3 55 12.8 80 80 N 12 19 29.8 1009 10 16.09344 0 0
2:55 am 02:55 Mostly Cloudy 62 16.7 55 13 79 79 NNW 8 13 29.85 1011 10 16.09344 0 0
3:15 am 03:15 Cloudy 63 17 56 13.3 79 79 N 8 13 29.85 1011 10 16.09344 0 0
3:35 am 03:35 Cloudy 63 17 56 13.6 81 81 N 10 17 29.85 1011 10 16.09344 0 0
3:55 am 03:55 Cloudy 62 16.7 56 13.6 82 82 N 13 20 29.85 1011 10 16.09344 0 0
4:15 am 04:15 Cloudy 62 16.8 56 13.1 79 79 NNE 17 28 29.83 1010 10 16.09344 0 0
4:35 am 04:35 Mostly Cloudy 62 16.5 54 12.3 76 76 NNE 17 28 29.8 1009 10 16.09344 0 0
4:55 am 04:55 Partly Cloudy 61 15.9 54 12 78 78 NNE 13 20 29.8 1009 10 16.09344 0 0
5:15 am 05:15 Clear 60 15.4 53 11.8 79 79 N 8 13 29.85 1011 10 16.09344 0 0
5:35 am 05:35 Mostly Cloudy 59 15.2 53 11.7 80 80 N 6 9 29.85 1011 10 16.09344 0 0
5:55 am 05:55 Cloudy 59 15.2 54 12.1 82 82 N 7 11 29.85 1011 10 16.09344 0 0
6:15 am 06:15 Cloudy 60 15.5 53 11.9 79 79 N 6 9 29.85 1011 10 16.09344 0 0
6:35 am 06:35 Cloudy 60 15.6 54 12.2 80 80 NNE 8 13 29.85 1011 10 16.09344 0 0
6:55 am 06:55 Cloudy 60 15.6 55 12.5 82 82 N 8 13 29.85 1011 10 16.09344 0 0
7:15 am 07:15 Cloudy 60 15.6 55 12.6 82 82 N 7 11 29.85 1011 10 16.09344 0 0
7:35 am 07:35 Cloudy 60 15.7 56 13.2 85 85 N 5 7 29.85 1011 10 16.09344 0 0
7:55 am 07:55 Cloudy 61 16 57 14 88 88 NNE 3 6 29.83 1010 10 16.09344 0 0
8:15 am 08:15 Cloudy 61 16.1 58 14.5 90 90 NNE 13 20 29.85 1011 10 16.09344 0 0
8:35 am 08:35 Cloudy 61 16 58 14.5 91 91 N 8 13 29.88 1012 10 16.09344 0 0
8:55 am 08:55 Cloudy 61 16.1 58 14.6 91 91 N 12 19 29.88 1012 10 16.09344 0 0
9:15 am 09:15 Cloudy 61 16 59 14.9 93 93 NNE 10 17 29.88 1012 10 16.09344 0 0
9:35 am 09:35 Cloudy 61 16.3 59 15.1 93 93 NNE 8 13 29.88 1012 10 16.09344 0 0
9:55 am 09:55 Cloudy 63 17 60 15.6 92 92 N 9 15 29.88 1012 10 16.09344 0 0
10:15 am 10:15 Cloudy 62 16.9 60 15.5 92 92 N 3 6 29.88 1012 10 16.09344 0 0
10:35 am 10:35 Cloudy 63 17.4 60 15.7 90 90 N 9 15 29.85 1011 10 16.09344 0 0
10:55 am 10:55 Cloudy 64 18 61 16 88 88 N 9 15 29.85 1011 10 16.09344 0 0
11:15 am 11:15 Cloudy 65 18.2 61 16.2 88 88 N 6 9 29.85 1011 10 16.09344 0 0
11:35 am 11:35 Cloudy 65 18.5 61 16.3 87 87 NNE 9 15 29.85 1011 10 16.09344 0 0
11:55 am 11:55 Cloudy 66 18.9 62 16.7 87 87 N 8 13 29.83 1010 10 16.09344 0 0
12:15 pm 12:15 Cloudy 66 18.7 62 16.6 88 88 N 9 15 29.83 1010 10 16.09344 0 0
12:35 pm 12:35 Cloudy 66 18.9 62 16.7 87 87 N 9 15 29.85 1011 10 16.09344 0 0
12:55 pm 12:55 Cloudy 65 18.1 61 16 88 88 N 9 15 29.88 1012 10 16.09344 0 0
1:15 pm 13:15 Cloudy 64 17.8 60 15.7 88 88 NNW 12 19 29.88 1012 10 16.09344 0 0
1:35 pm 13:35 Cloudy 64 17.5 60 15.5 88 88 N 10 17 29.88 1012 10 16.09344 0 0
1:55 pm 13:55 Cloudy 64 17.7 60 15.5 87 87 N 10 17 29.88 1012 10 16.09344 0 0
2:15 pm 14:15 Cloudy 64 17.5 59 15.2 86 86 N 14 22 29.88 1012 10 16.09344 0 0
2:35 pm 14:35 Cloudy 63 17.2 59 14.8 86 86 N 15 24 29.88 1012 10 16.09344 0 0
2:55 pm 14:55 Cloudy 63 17 58 14.4 85 85 N 13 20 29.88 1012 10 16.09344 0 0
3:15 pm 15:15 Cloudy 62 16.9 57 14.1 84 84 N 13 20 29.88 1012 10 16.09344 0 0
3:35 pm 15:35 Cloudy 62 16.8 57 14.1 84 84 N 13 20 29.88 1012 10 16.09344 0 0
3:55 pm 15:55 Cloudy 61 16.2 57 13.7 85 85 N 13 20 29.91 1013 10 16.09344 0 0
4:15 pm 16:15 Cloudy with Light Rain 61 16.2 57 13.8 86 86 N 12 19 29.88 1012 10 16.09344 0 0
4:35 pm 16:35 Cloudy 61 16 56 13.6 86 86 N 13 20 29.88 1012 10 16.09344 0 0
4:55 pm 16:55 Cloudy 61 16 56 13.6 86 86 N 14 22 29.88 1012 10 16.09344 0 0
5:15 pm 17:15 Cloudy 61 16.1 57 13.7 86 86 N 13 20 29.88 1012 10 16.09344 0 0
5:35 pm 17:35 Cloudy 61 16 56 13.2 84 84 N 15 24 29.88 1012 10 16.09344 0 0
5:55 pm 17:55 Cloudy 60 15.7 55 13 84 84 N 14 22 29.88 1012 10 16.09344 0 0
6:15 pm 18:15 Cloudy 60 15.7 56 13.4 86 86 N 16 26 29.88 1012 10 16.09344 0 0
6:35 pm 18:35 Cloudy 60 15.5 56 13.1 86 86 N 13 20 29.85 1011 10 16.09344 0 0
6:55 pm 18:55 Cloudy 59 15.1 56 13.3 89 89 N 17 28 29.85 1011 10 16.09344 0 0
7:15 pm 19:15 Cloudy with Light Drizzle 59 15 56 13.3 90 90 N 13 20 29.88 1012 10 16.09344 0 0
7:35 pm 19:35 Cloudy 59 15 56 13.3 90 90 NNE 15 24 29.88 1012 10 16.09344 0 0
7:55 pm 19:55 Cloudy 59 15 56 13.1 89 89 N 8 13 29.83 1010 10 16.09344 0 0
8:15 pm 20:15 Cloudy 58 14.5 55 12.9 90 90 NNE 12 19 29.85 1011 10 16.09344 0 0
8:35 pm 20:35 Cloudy 58 14.5 56 13.1 91 91 N 12 19 29.85 1011 10 16.09344 0 0
8:55 pm 20:55 Cloudy 59 14.8 56 13.5 92 92 N 10 17 29.88 1012 10 16.09344 0 0
9:15 pm 21:15 Cloudy 59 15 57 13.8 93 93 NNE 13 20 29.88 1012 10 16.09344 0 0
9:35 pm 21:35 Cloudy 60 15.3 58 14.3 94 94 N 12 19 29.85 1011 10 16.09344 0 0
9:55 pm 21:55 Cloudy 60 15.3 58 14.5 95 95 N 12 19 29.85 1011 10 16.09344 0 0
10:15 pm 22:15 Cloudy 59 15.2 58 14.5 96 96 N 8 13 29.85 1011 10 16.09344 0 0
10:35 pm 22:35 Cloudy 59 15 58 14.5 97 97 NNE 9 15 29.88 1012 10 16.09344 0 0
10:55 pm 22:55 Cloudy 59 15 58 14.3 96 96 N 9 15 29.88 1012 10 16.09344 0 0
11:15 pm 23:15 Cloudy 59 14.8 57 14.1 96 96 NNW 9 15 29.91 1013 10 16.09344 0 0
11:35 pm 23:35 Cloudy 59 15 58 14.2 95 95 NNW 9 15 29.91 1013 10 16.09344 0 0
11:55 pm 23:55 Cloudy 59 15 58 14.3 96 96 NNW 9 15 29.94 1014 10 16.09344 0 0

Powered by AerisWeather